Hourly Data Report for September 11, 2017

All times are specified in Local Standard Time (LST). Add 1 hour to adjust for Daylight Saving Time where and when it is observed.

CHARLOTTETOWN A
PRINCE EDWARD ISLAND

46°17'21.000" N
63°07'09.000" W
48.50 m
8300301
71706
YYG

Download Data

Hourly Data (September 2017)
Hourly Data Report for September 11, 2017
Temp Definition
°C
Dew Point Temp Definition
°C
Rel Hum Definition
%
Wind Dir Definition
10's deg

Wind Spd Definition
km/h
Visibility Definition
km
Stn Press Definition
kPa
Hmdx Definition


Wind Chill Definition


Weather Definition


TIME
00:00 Legend Double Dagger 11.0 9.9 93 29 7 24.1 101.25     LegendNANA
01:00 Legend Double Dagger 10.8 9.6 92 30 9 24.1 101.18     LegendNANA
02:00 Legend Double Dagger 9.7 8.7 94 31 8 24.1 101.12     Mainly Clear
03:00 Legend Double Dagger 10.1 9.0 93 32 8 24.1 101.09     LegendNANA
04:00 Legend Double Dagger 10.8 9.5 92 31 9 24.1 101.05     LegendNANA
05:00 Legend Double Dagger 11.9 10.7 92 30 11 24.1 101.02     Mostly Cloudy
06:00 Legend Double Dagger 12.4 11.4 94 31 11 24.1 101.02     LegendNANA
07:00 Legend Double Dagger 13.9 12.5 91 34 14 24.1 101.02     LegendNANA
08:00 Legend Double Dagger 14.1 12.3 89 32 22 24.1 101.00     Mostly Cloudy
09:00 Legend Double Dagger 14.5 12.6 88 35 13 24.1 101.04     LegendNANA
10:00 Legend Double Dagger 15.0 12.7 86 2 25 24.1 101.03     LegendNANA
11:00 Legend Double Dagger 14.8 11.3 80 1 25 24.1 100.98     Cloudy
12:00 Legend Double Dagger 15.4 11.8 79 36 17 24.1 100.94     LegendNANA
13:00 Legend Double Dagger 15.6 12.1 79 35 26 24.1 100.91     LegendNANA
14:00 Legend Double Dagger 16.1 11.6 74 36 31 24.1 100.85     Mostly Cloudy
15:00 Legend Double Dagger 16.1 12.2 77 35 28 24.1 100.79     LegendNANA
16:00 Legend Double Dagger 15.4 11.7 79 1 28 24.1 100.73     LegendNANA
17:00 Legend Double Dagger 15.2 11.9 80 36 26 24.1 100.78     Mostly Cloudy
18:00 Legend Double Dagger 14.6 11.3 80 36 22 24.1 100.69     LegendNANA
19:00 Legend Double Dagger 14.3 10.9 80 36 24 24.1 100.70     LegendNANA
20:00 Legend Double Dagger 14.2 10.4 78 36 26 24.1 100.76     Mostly Cloudy
21:00 Legend Double Dagger 14.1 10.6 79 1 31 24.1 100.75     LegendNANA
22:00 Legend Double Dagger 14.1 9.6 74 1 24 24.1 100.71     LegendNANA
23:00 Legend Double Dagger 14.0 9.5 74 1 24 24.1 100.65     Mainly Clear

Notes on Data Quality.

Legend

  • E = Estimated
  • M = Missing
  • NA = Not Available
  • ‡ = Partner data that is not subject to review by the National Climate Archives
Date modified: